Index of /20260426/WXO-DD/model_rdps/10km/12/047
Name Last modified Size Description
Parent Directory -
20260426T12Z_MSC_RDPS_AbsoluteVorticity_IsbL-0250_RLatLon0.09_PT047H.grib2 2026-04-26 14:54 620K
20260426T12Z_MSC_RDPS_AbsoluteVorticity_IsbL-0500_RLatLon0.09_PT047H.grib2 2026-04-26 14:54 564K
20260426T12Z_MSC_RDPS_AbsoluteVorticity_IsbL-0700_RLatLon0.09_PT047H.grib2 2026-04-26 14:54 619K
20260426T12Z_MSC_RDPS_AbsoluteVorticity_IsbL-0850_RLatLon0.09_PT047H.grib2 2026-04-26 14:54 778K
20260426T12Z_MSC_RDPS_AirTemp_AGL-120m_RLatLon0.09_PT047H.grib2 2026-04-26 14:54 381K
20260426T12Z_MSC_RDPS_AirTemp_AGL-2m_RLatLon0.09_PT047H.grib2 2026-04-26 14:54 643K
20260426T12Z_MSC_RDPS_AirTemp_AGL-40m_RLatLon0.09_PT047H.grib2 2026-04-26 14:54 399K
20260426T12Z_MSC_RDPS_AirTemp_AGL-80m_RLatLon0.09_PT047H.grib2 2026-04-26 14:54 389K
20260426T12Z_MSC_RDPS_AirTemp_IsbL-0001_RLatLon0.09_PT047H.grib2 2026-04-26 14:54 262K
20260426T12Z_MSC_RDPS_AirTemp_IsbL-0005_RLatLon0.09_PT047H.grib2 2026-04-26 14:54 297K
20260426T12Z_MSC_RDPS_AirTemp_IsbL-0010_RLatLon0.09_PT047H.grib2 2026-04-26 14:54 308K
20260426T12Z_MSC_RDPS_AirTemp_IsbL-0020_RLatLon0.09_PT047H.grib2 2026-04-26 14:54 326K
20260426T12Z_MSC_RDPS_AirTemp_IsbL-0030_RLatLon0.09_PT047H.grib2 2026-04-26 14:54 342K
20260426T12Z_MSC_RDPS_AirTemp_IsbL-0050_RLatLon0.09_PT047H.grib2 2026-04-26 14:54 321K
20260426T12Z_MSC_RDPS_AirTemp_IsbL-0100_RLatLon0.09_PT047H.grib2 2026-04-26 14:54 434K
20260426T12Z_MSC_RDPS_AirTemp_IsbL-0150_RLatLon0.09_PT047H.grib2 2026-04-26 14:54 434K
20260426T12Z_MSC_RDPS_AirTemp_IsbL-0175_RLatLon0.09_PT047H.grib2 2026-04-26 14:54 422K
20260426T12Z_MSC_RDPS_AirTemp_IsbL-0200_RLatLon0.09_PT047H.grib2 2026-04-26 14:54 420K
20260426T12Z_MSC_RDPS_AirTemp_IsbL-0225_RLatLon0.09_PT047H.grib2 2026-04-26 14:54 421K
20260426T12Z_MSC_RDPS_AirTemp_IsbL-0250_RLatLon0.09_PT047H.grib2 2026-04-26 14:54 430K
20260426T12Z_MSC_RDPS_AirTemp_IsbL-0275_RLatLon0.09_PT047H.grib2 2026-04-26 14:54 411K
20260426T12Z_MSC_RDPS_AirTemp_IsbL-0300_RLatLon0.09_PT047H.grib2 2026-04-26 14:54 417K
20260426T12Z_MSC_RDPS_AirTemp_IsbL-0350_RLatLon0.09_PT047H.grib2 2026-04-26 14:54 428K
20260426T12Z_MSC_RDPS_AirTemp_IsbL-0400_RLatLon0.09_PT047H.grib2 2026-04-26 14:54 429K
20260426T12Z_MSC_RDPS_AirTemp_IsbL-0450_RLatLon0.09_PT047H.grib2 2026-04-26 14:54 400K
20260426T12Z_MSC_RDPS_AirTemp_IsbL-0500_RLatLon0.09_PT047H.grib2 2026-04-26 14:54 410K
20260426T12Z_MSC_RDPS_AirTemp_IsbL-0550_RLatLon0.09_PT047H.grib2 2026-04-26 14:54 426K
20260426T12Z_MSC_RDPS_AirTemp_IsbL-0600_RLatLon0.09_PT047H.grib2 2026-04-26 14:54 441K
20260426T12Z_MSC_RDPS_AirTemp_IsbL-0650_RLatLon0.09_PT047H.grib2 2026-04-26 14:54 456K
20260426T12Z_MSC_RDPS_AirTemp_IsbL-0700_RLatLon0.09_PT047H.grib2 2026-04-26 14:54 479K
20260426T12Z_MSC_RDPS_AirTemp_IsbL-0750_RLatLon0.09_PT047H.grib2 2026-04-26 14:54 408K
20260426T12Z_MSC_RDPS_AirTemp_IsbL-0800_RLatLon0.09_PT047H.grib2 2026-04-26 14:54 456K
20260426T12Z_MSC_RDPS_AirTemp_IsbL-0850_RLatLon0.09_PT047H.grib2 2026-04-26 14:54 507K
20260426T12Z_MSC_RDPS_AirTemp_IsbL-0875_RLatLon0.09_PT047H.grib2 2026-04-26 14:54 525K
20260426T12Z_MSC_RDPS_AirTemp_IsbL-0900_RLatLon0.09_PT047H.grib2 2026-04-26 14:54 530K
20260426T12Z_MSC_RDPS_AirTemp_IsbL-0925_RLatLon0.09_PT047H.grib2 2026-04-26 14:54 527K
20260426T12Z_MSC_RDPS_AirTemp_IsbL-0950_RLatLon0.09_PT047H.grib2 2026-04-26 14:54 529K
20260426T12Z_MSC_RDPS_AirTemp_IsbL-0970_RLatLon0.09_PT047H.grib2 2026-04-26 14:54 525K
20260426T12Z_MSC_RDPS_AirTemp_IsbL-0985_RLatLon0.09_PT047H.grib2 2026-04-26 14:54 513K
20260426T12Z_MSC_RDPS_AirTemp_IsbL-1000_RLatLon0.09_PT047H.grib2 2026-04-26 14:54 498K
20260426T12Z_MSC_RDPS_AirTemp_IsbL-1015_RLatLon0.09_PT047H.grib2 2026-04-26 14:54 497K
20260426T12Z_MSC_RDPS_Albedo_Sfc_RLatLon0.09_PT047H.grib2 2026-04-26 14:54 159K
20260426T12Z_MSC_RDPS_CAPE_Sfc_RLatLon0.09_PT047H.grib2 2026-04-26 14:54 1.6M
20260426T12Z_MSC_RDPS_CIN_Sfc_RLatLon0.09_PT047H.grib2 2026-04-26 14:54 1.1M
20260426T12Z_MSC_RDPS_CloudWater_EAtm_RLatLon0.09_PT047H.grib2 2026-04-26 14:54 218K
20260426T12Z_MSC_RDPS_ConvectivePrecip-Accum_Sfc_RLatLon0.09_PT047H.grib2 2026-04-26 14:54 1.1M
20260426T12Z_MSC_RDPS_DewPointDepression_AGL-2m_RLatLon0.09_PT047H.grib2 2026-04-26 14:54 391K
20260426T12Z_MSC_RDPS_DewPointDepression_IsbL-0001_RLatLon0.09_PT047H.grib2 2026-04-26 14:54 193
20260426T12Z_MSC_RDPS_DewPointDepression_IsbL-0005_RLatLon0.09_PT047H.grib2 2026-04-26 14:54 193
20260426T12Z_MSC_RDPS_DewPointDepression_IsbL-0010_RLatLon0.09_PT047H.grib2 2026-04-26 14:54 193
20260426T12Z_MSC_RDPS_DewPointDepression_IsbL-0020_RLatLon0.09_PT047H.grib2 2026-04-26 14:54 193
20260426T12Z_MSC_RDPS_DewPointDepression_IsbL-0030_RLatLon0.09_PT047H.grib2 2026-04-26 14:54 1.1K
20260426T12Z_MSC_RDPS_DewPointDepression_IsbL-0050_RLatLon0.09_PT047H.grib2 2026-04-26 14:54 90K
20260426T12Z_MSC_RDPS_DewPointDepression_IsbL-0100_RLatLon0.09_PT047H.grib2 2026-04-26 14:54 130K
20260426T12Z_MSC_RDPS_DewPointDepression_IsbL-0150_RLatLon0.09_PT047H.grib2 2026-04-26 14:54 150K
20260426T12Z_MSC_RDPS_DewPointDepression_IsbL-0175_RLatLon0.09_PT047H.grib2 2026-04-26 14:54 180K
20260426T12Z_MSC_RDPS_DewPointDepression_IsbL-0200_RLatLon0.09_PT047H.grib2 2026-04-26 14:54 216K
20260426T12Z_MSC_RDPS_DewPointDepression_IsbL-0225_RLatLon0.09_PT047H.grib2 2026-04-26 14:54 260K
20260426T12Z_MSC_RDPS_DewPointDepression_IsbL-0250_RLatLon0.09_PT047H.grib2 2026-04-26 14:54 299K
20260426T12Z_MSC_RDPS_DewPointDepression_IsbL-0275_RLatLon0.09_PT047H.grib2 2026-04-26 14:54 307K
20260426T12Z_MSC_RDPS_DewPointDepression_IsbL-0300_RLatLon0.09_PT047H.grib2 2026-04-26 14:54 324K
20260426T12Z_MSC_RDPS_DewPointDepression_IsbL-0350_RLatLon0.09_PT047H.grib2 2026-04-26 14:54 327K
20260426T12Z_MSC_RDPS_DewPointDepression_IsbL-0400_RLatLon0.09_PT047H.grib2 2026-04-26 14:54 339K
20260426T12Z_MSC_RDPS_DewPointDepression_IsbL-0450_RLatLon0.09_PT047H.grib2 2026-04-26 14:54 349K
20260426T12Z_MSC_RDPS_DewPointDepression_IsbL-0500_RLatLon0.09_PT047H.grib2 2026-04-26 14:54 356K
20260426T12Z_MSC_RDPS_DewPointDepression_IsbL-0550_RLatLon0.09_PT047H.grib2 2026-04-26 14:54 365K
20260426T12Z_MSC_RDPS_DewPointDepression_IsbL-0600_RLatLon0.09_PT047H.grib2 2026-04-26 14:54 376K
20260426T12Z_MSC_RDPS_DewPointDepression_IsbL-0650_RLatLon0.09_PT047H.grib2 2026-04-26 14:54 382K
20260426T12Z_MSC_RDPS_DewPointDepression_IsbL-0700_RLatLon0.09_PT047H.grib2 2026-04-26 14:54 393K
20260426T12Z_MSC_RDPS_DewPointDepression_IsbL-0750_RLatLon0.09_PT047H.grib2 2026-04-26 14:54 415K
20260426T12Z_MSC_RDPS_DewPointDepression_IsbL-0800_RLatLon0.09_PT047H.grib2 2026-04-26 14:54 447K
20260426T12Z_MSC_RDPS_DewPointDepression_IsbL-0850_RLatLon0.09_PT047H.grib2 2026-04-26 14:54 473K
20260426T12Z_MSC_RDPS_DewPointDepression_IsbL-0875_RLatLon0.09_PT047H.grib2 2026-04-26 14:54 474K
20260426T12Z_MSC_RDPS_DewPointDepression_IsbL-0900_RLatLon0.09_PT047H.grib2 2026-04-26 14:54 462K
20260426T12Z_MSC_RDPS_DewPointDepression_IsbL-0925_RLatLon0.09_PT047H.grib2 2026-04-26 14:54 451K
20260426T12Z_MSC_RDPS_DewPointDepression_IsbL-0950_RLatLon0.09_PT047H.grib2 2026-04-26 14:54 442K
20260426T12Z_MSC_RDPS_DewPointDepression_IsbL-0970_RLatLon0.09_PT047H.grib2 2026-04-26 14:54 435K
20260426T12Z_MSC_RDPS_DewPointDepression_IsbL-0985_RLatLon0.09_PT047H.grib2 2026-04-26 14:54 431K
20260426T12Z_MSC_RDPS_DewPointDepression_IsbL-1000_RLatLon0.09_PT047H.grib2 2026-04-26 14:54 428K
20260426T12Z_MSC_RDPS_DewPointDepression_IsbL-1015_RLatLon0.09_PT047H.grib2 2026-04-26 14:54 422K
20260426T12Z_MSC_RDPS_DewPoint_AGL-2m_RLatLon0.09_PT047H.grib2 2026-04-26 14:54 315K
20260426T12Z_MSC_RDPS_DownwardLongwaveRadiationFlux-Accum_Sfc_RLatLon0.09_PT047H.grib2 2026-04-26 14:54 375K
20260426T12Z_MSC_RDPS_DownwardShortwaveRadiationFlux-Accum_NTAtm_RLatLon0.09_PT047H.grib2 2026-04-26 14:54 120K
20260426T12Z_MSC_RDPS_DownwardShortwaveRadiationFlux-Accum_Sfc_RLatLon0.09_PT047H.grib2 2026-04-26 14:54 564K
20260426T12Z_MSC_RDPS_FreezingRain-Accum1h_Sfc_RLatLon0.09_PT047H.grib2 2026-04-26 14:54 48K
20260426T12Z_MSC_RDPS_FreezingRain-Accum_Sfc_RLatLon0.09_PT047H.grib2 2026-04-26 14:54 162K
20260426T12Z_MSC_RDPS_GeopotentialHeight_IsbL-0001_RLatLon0.09_PT047H.grib2 2026-04-26 14:54 244K
20260426T12Z_MSC_RDPS_GeopotentialHeight_IsbL-0005_RLatLon0.09_PT047H.grib2 2026-04-26 14:54 345K
20260426T12Z_MSC_RDPS_GeopotentialHeight_IsbL-0010_RLatLon0.09_PT047H.grib2 2026-04-26 14:54 313K
20260426T12Z_MSC_RDPS_GeopotentialHeight_IsbL-0020_RLatLon0.09_PT047H.grib2 2026-04-26 14:54 313K
20260426T12Z_MSC_RDPS_GeopotentialHeight_IsbL-0030_RLatLon0.09_PT047H.grib2 2026-04-26 14:54 314K
20260426T12Z_MSC_RDPS_GeopotentialHeight_IsbL-0050_RLatLon0.09_PT047H.grib2 2026-04-26 14:54 315K
20260426T12Z_MSC_RDPS_GeopotentialHeight_IsbL-0100_RLatLon0.09_PT047H.grib2 2026-04-26 14:54 292K
20260426T12Z_MSC_RDPS_GeopotentialHeight_IsbL-0150_RLatLon0.09_PT047H.grib2 2026-04-26 14:54 234K
20260426T12Z_MSC_RDPS_GeopotentialHeight_IsbL-0175_RLatLon0.09_PT047H.grib2 2026-04-26 14:54 267K
20260426T12Z_MSC_RDPS_GeopotentialHeight_IsbL-0200_RLatLon0.09_PT047H.grib2 2026-04-26 14:54 269K
20260426T12Z_MSC_RDPS_GeopotentialHeight_IsbL-0225_RLatLon0.09_PT047H.grib2 2026-04-26 14:54 270K
20260426T12Z_MSC_RDPS_GeopotentialHeight_IsbL-0250_RLatLon0.09_PT047H.grib2 2026-04-26 14:54 271K
20260426T12Z_MSC_RDPS_GeopotentialHeight_IsbL-0275_RLatLon0.09_PT047H.grib2 2026-04-26 14:54 270K
20260426T12Z_MSC_RDPS_GeopotentialHeight_IsbL-0300_RLatLon0.09_PT047H.grib2 2026-04-26 14:54 270K
20260426T12Z_MSC_RDPS_GeopotentialHeight_IsbL-0350_RLatLon0.09_PT047H.grib2 2026-04-26 14:54 235K
20260426T12Z_MSC_RDPS_GeopotentialHeight_IsbL-0400_RLatLon0.09_PT047H.grib2 2026-04-26 14:54 232K
20260426T12Z_MSC_RDPS_GeopotentialHeight_IsbL-0450_RLatLon0.09_PT047H.grib2 2026-04-26 14:54 300K
20260426T12Z_MSC_RDPS_GeopotentialHeight_IsbL-0500_RLatLon0.09_PT047H.grib2 2026-04-26 14:54 295K
20260426T12Z_MSC_RDPS_GeopotentialHeight_IsbL-0550_RLatLon0.09_PT047H.grib2 2026-04-26 14:54 290K
20260426T12Z_MSC_RDPS_GeopotentialHeight_IsbL-0600_RLatLon0.09_PT047H.grib2 2026-04-26 14:54 285K
20260426T12Z_MSC_RDPS_GeopotentialHeight_IsbL-0650_RLatLon0.09_PT047H.grib2 2026-04-26 14:54 284K
20260426T12Z_MSC_RDPS_GeopotentialHeight_IsbL-0700_RLatLon0.09_PT047H.grib2 2026-04-26 14:54 254K
20260426T12Z_MSC_RDPS_GeopotentialHeight_IsbL-0750_RLatLon0.09_PT047H.grib2 2026-04-26 14:54 337K
20260426T12Z_MSC_RDPS_GeopotentialHeight_IsbL-0800_RLatLon0.09_PT047H.grib2 2026-04-26 14:54 346K
20260426T12Z_MSC_RDPS_GeopotentialHeight_IsbL-0850_RLatLon0.09_PT047H.grib2 2026-04-26 14:54 357K
20260426T12Z_MSC_RDPS_GeopotentialHeight_IsbL-0875_RLatLon0.09_PT047H.grib2 2026-04-26 14:54 361K
20260426T12Z_MSC_RDPS_GeopotentialHeight_IsbL-0900_RLatLon0.09_PT047H.grib2 2026-04-26 14:54 364K
20260426T12Z_MSC_RDPS_GeopotentialHeight_IsbL-0925_RLatLon0.09_PT047H.grib2 2026-04-26 14:54 367K
20260426T12Z_MSC_RDPS_GeopotentialHeight_IsbL-0950_RLatLon0.09_PT047H.grib2 2026-04-26 14:54 372K
20260426T12Z_MSC_RDPS_GeopotentialHeight_IsbL-0970_RLatLon0.09_PT047H.grib2 2026-04-26 14:54 376K
20260426T12Z_MSC_RDPS_GeopotentialHeight_IsbL-0985_RLatLon0.09_PT047H.grib2 2026-04-26 14:54 384K
20260426T12Z_MSC_RDPS_GeopotentialHeight_IsbL-1000_RLatLon0.09_PT047H.grib2 2026-04-26 14:54 395K
20260426T12Z_MSC_RDPS_GeopotentialHeight_IsbL-1015_RLatLon0.09_PT047H.grib2 2026-04-26 14:54 410K
20260426T12Z_MSC_RDPS_Humidex_Sfc_RLatLon0.09_PT047H.grib2 2026-04-26 14:54 2.4M
20260426T12Z_MSC_RDPS_IcePellets-Accum1h_Sfc_RLatLon0.09_PT047H.grib2 2026-04-26 14:54 8.7K
20260426T12Z_MSC_RDPS_IcePellets-Accum_Sfc_RLatLon0.09_PT047H.grib2 2026-04-26 14:54 24K
20260426T12Z_MSC_RDPS_KIndex_Sfc_RLatLon0.09_PT047H.grib2 2026-04-26 14:54 2.5M
20260426T12Z_MSC_RDPS_LatentHeatNetFlux_Sfc_RLatLon0.09_PT047H.grib2 2026-04-26 14:54 321K
20260426T12Z_MSC_RDPS_LiftedIndex-MU-VT_IsbL-0500_RLatLon0.09_PT047H.grib2 2026-04-26 14:54 2.4M
20260426T12Z_MSC_RDPS_NetLongwaveRadiationFlux-Accum_Sfc_RLatLon0.09_PT047H.grib2 2026-04-26 14:54 549K
20260426T12Z_MSC_RDPS_NetShortwaveRadiationFlux-Accum_Sfc_RLatLon0.09_PT047H.grib2 2026-04-26 14:54 567K
20260426T12Z_MSC_RDPS_PlanetaryBoundaryLayerHeight_Sfc_RLatLon0.09_PT047H.grib2 2026-04-26 14:54 1.1M
20260426T12Z_MSC_RDPS_Precip-Accum1h_Sfc_RLatLon0.09_PT047H.grib2 2026-04-26 14:54 1.3M
20260426T12Z_MSC_RDPS_Precip-Accum_Sfc_RLatLon0.09_PT047H.grib2 2026-04-26 14:54 1.9M
20260426T12Z_MSC_RDPS_PrecipRate_Sfc_RLatLon0.09_PT047H.grib2 2026-04-26 14:54 172K
20260426T12Z_MSC_RDPS_PrecipType-Instant_Sfc_RLatLon0.09_PT047H.grib2 2026-04-26 14:54 592K
20260426T12Z_MSC_RDPS_Pressure-Trend3h_Sfc_RLatLon0.09_PT047H.grib2 2026-04-26 14:54 1.2M
20260426T12Z_MSC_RDPS_Pressure_MSL_RLatLon0.09_PT047H.grib2 2026-04-26 14:54 294K
20260426T12Z_MSC_RDPS_Pressure_PVU-1.5_RLatLon0.09_PT047H.grib2 2026-04-26 14:54 2.3M
20260426T12Z_MSC_RDPS_Pressure_PVU-1_RLatLon0.09_PT047H.grib2 2026-04-26 14:54 2.4M
20260426T12Z_MSC_RDPS_Pressure_PVU-2_RLatLon0.09_PT047H.grib2 2026-04-26 14:54 2.3M
20260426T12Z_MSC_RDPS_Pressure_Sfc_RLatLon0.09_PT047H.grib2 2026-04-26 14:54 502K
20260426T12Z_MSC_RDPS_RadiativeTemp_Sfc_RLatLon0.09_PT047H.grib2 2026-04-26 14:54 304K
20260426T12Z_MSC_RDPS_Rain-Accum1h_Sfc_RLatLon0.09_PT047H.grib2 2026-04-26 14:54 552K
20260426T12Z_MSC_RDPS_Rain-Accum_Sfc_RLatLon0.09_PT047H.grib2 2026-04-26 14:54 1.5M
20260426T12Z_MSC_RDPS_RelativeHumidity_AGL-2m_RLatLon0.09_PT047H.grib2 2026-04-26 14:54 1.0M
20260426T12Z_MSC_RDPS_RelativeHumidity_IsbL-0010_RLatLon0.09_PT047H.grib2 2026-04-26 14:54 626K
20260426T12Z_MSC_RDPS_RelativeHumidity_IsbL-0020_RLatLon0.09_PT047H.grib2 2026-04-26 14:54 653K
20260426T12Z_MSC_RDPS_RelativeHumidity_IsbL-0030_RLatLon0.09_PT047H.grib2 2026-04-26 14:54 543K
20260426T12Z_MSC_RDPS_RelativeHumidity_IsbL-0050_RLatLon0.09_PT047H.grib2 2026-04-26 14:54 330K
20260426T12Z_MSC_RDPS_RelativeHumidity_IsbL-0100_RLatLon0.09_PT047H.grib2 2026-04-26 14:54 283K
20260426T12Z_MSC_RDPS_RelativeHumidity_IsbL-0150_RLatLon0.09_PT047H.grib2 2026-04-26 14:54 415K
20260426T12Z_MSC_RDPS_RelativeHumidity_IsbL-0175_RLatLon0.09_PT047H.grib2 2026-04-26 14:54 488K
20260426T12Z_MSC_RDPS_RelativeHumidity_IsbL-0200_RLatLon0.09_PT047H.grib2 2026-04-26 14:54 554K
20260426T12Z_MSC_RDPS_RelativeHumidity_IsbL-0225_RLatLon0.09_PT047H.grib2 2026-04-26 14:54 615K
20260426T12Z_MSC_RDPS_RelativeHumidity_IsbL-0250_RLatLon0.09_PT047H.grib2 2026-04-26 14:54 687K
20260426T12Z_MSC_RDPS_RelativeHumidity_IsbL-0275_RLatLon0.09_PT047H.grib2 2026-04-26 14:54 719K
20260426T12Z_MSC_RDPS_RelativeHumidity_IsbL-0300_RLatLon0.09_PT047H.grib2 2026-04-26 14:54 765K
20260426T12Z_MSC_RDPS_RelativeHumidity_IsbL-0350_RLatLon0.09_PT047H.grib2 2026-04-26 14:54 777K
20260426T12Z_MSC_RDPS_RelativeHumidity_IsbL-0400_RLatLon0.09_PT047H.grib2 2026-04-26 14:54 791K
20260426T12Z_MSC_RDPS_RelativeHumidity_IsbL-0450_RLatLon0.09_PT047H.grib2 2026-04-26 14:54 800K
20260426T12Z_MSC_RDPS_RelativeHumidity_IsbL-0500_RLatLon0.09_PT047H.grib2 2026-04-26 14:54 808K
20260426T12Z_MSC_RDPS_RelativeHumidity_IsbL-0550_RLatLon0.09_PT047H.grib2 2026-04-26 14:54 827K
20260426T12Z_MSC_RDPS_RelativeHumidity_IsbL-0600_RLatLon0.09_PT047H.grib2 2026-04-26 14:54 843K
20260426T12Z_MSC_RDPS_RelativeHumidity_IsbL-0650_RLatLon0.09_PT047H.grib2 2026-04-26 14:54 855K
20260426T12Z_MSC_RDPS_RelativeHumidity_IsbL-0700_RLatLon0.09_PT047H.grib2 2026-04-26 14:54 889K
20260426T12Z_MSC_RDPS_RelativeHumidity_IsbL-0750_RLatLon0.09_PT047H.grib2 2026-04-26 14:54 930K
20260426T12Z_MSC_RDPS_RelativeHumidity_IsbL-0800_RLatLon0.09_PT047H.grib2 2026-04-26 14:54 1.0M
20260426T12Z_MSC_RDPS_RelativeHumidity_IsbL-0850_RLatLon0.09_PT047H.grib2 2026-04-26 14:54 1.0M
20260426T12Z_MSC_RDPS_RelativeHumidity_IsbL-0875_RLatLon0.09_PT047H.grib2 2026-04-26 14:54 1.1M
20260426T12Z_MSC_RDPS_RelativeHumidity_IsbL-0900_RLatLon0.09_PT047H.grib2 2026-04-26 14:54 1.1M
20260426T12Z_MSC_RDPS_RelativeHumidity_IsbL-0925_RLatLon0.09_PT047H.grib2 2026-04-26 14:54 1.1M
20260426T12Z_MSC_RDPS_RelativeHumidity_IsbL-0950_RLatLon0.09_PT047H.grib2 2026-04-26 14:54 1.1M
20260426T12Z_MSC_RDPS_RelativeHumidity_IsbL-0970_RLatLon0.09_PT047H.grib2 2026-04-26 14:54 1.1M
20260426T12Z_MSC_RDPS_RelativeHumidity_IsbL-0985_RLatLon0.09_PT047H.grib2 2026-04-26 14:54 1.0M
20260426T12Z_MSC_RDPS_RelativeHumidity_IsbL-1000_RLatLon0.09_PT047H.grib2 2026-04-26 14:54 1.0M
20260426T12Z_MSC_RDPS_RelativeHumidity_IsbL-1015_RLatLon0.09_PT047H.grib2 2026-04-26 14:54 1.0M
20260426T12Z_MSC_RDPS_Runoff-Accum_Sfc_RLatLon0.09_PT047H.grib2 2026-04-26 14:54 47K
20260426T12Z_MSC_RDPS_SWEATIndex_Sfc_RLatLon0.09_PT047H.grib2 2026-04-26 14:54 2.4M
20260426T12Z_MSC_RDPS_SeeingIndex_EAtm_RLatLon0.09_PT047H.grib2 2026-04-26 14:54 1.0M
20260426T12Z_MSC_RDPS_SensibleHeatNetFlux_Sfc_RLatLon0.09_PT047H.grib2 2026-04-26 14:54 304K
20260426T12Z_MSC_RDPS_ShowalterIndex_IsbL-0500_RLatLon0.09_PT047H.grib2 2026-04-26 14:54 2.6M
20260426T12Z_MSC_RDPS_SkyTransparencyIndex_EAtm_RLatLon0.09_PT047H.grib2 2026-04-26 14:54 696K
20260426T12Z_MSC_RDPS_Snow-Accum1h_Sfc_RLatLon0.09_PT047H.grib2 2026-04-26 14:54 487K
20260426T12Z_MSC_RDPS_Snow-Accum_Sfc_RLatLon0.09_PT047H.grib2 2026-04-26 14:54 804K
20260426T12Z_MSC_RDPS_SnowDensity_Sfc_RLatLon0.09_PT047H.grib2 2026-04-26 14:54 186K
20260426T12Z_MSC_RDPS_SnowDepth_Sfc_RLatLon0.09_PT047H.grib2 2026-04-26 14:54 720K
20260426T12Z_MSC_RDPS_SoilTemp_DBS-0to10cm_RLatLon0.09_PT047H.grib2 2026-04-26 14:54 232K
20260426T12Z_MSC_RDPS_SoilTemp_Sfc_RLatLon0.09_PT047H.grib2 2026-04-26 14:54 268K
20260426T12Z_MSC_RDPS_SoilVolumetricIceContent_Sfc_RLatLon0.09_PT047H.grib2 2026-04-26 14:54 169K
20260426T12Z_MSC_RDPS_SoilVolumetricWaterContent_DBS-0to10cm_RLatLon0.09_PT047H.grib2 2026-04-26 14:54 261K
20260426T12Z_MSC_RDPS_SoilVolumetricWaterContent_DBS-0to1cm_RLatLon0.09_PT047H.grib2 2026-04-26 14:54 340K
20260426T12Z_MSC_RDPS_SpecificHumidity_AGL-120m_RLatLon0.09_PT047H.grib2 2026-04-26 14:54 487K
20260426T12Z_MSC_RDPS_SpecificHumidity_AGL-2m_RLatLon0.09_PT047H.grib2 2026-04-26 14:54 658K
20260426T12Z_MSC_RDPS_SpecificHumidity_AGL-40m_RLatLon0.09_PT047H.grib2 2026-04-26 14:54 493K
20260426T12Z_MSC_RDPS_SpecificHumidity_AGL-80m_RLatLon0.09_PT047H.grib2 2026-04-26 14:54 489K
20260426T12Z_MSC_RDPS_SpecificHumidity_IsbL-0001_RLatLon0.09_PT047H.grib2 2026-04-26 14:54 337K
20260426T12Z_MSC_RDPS_SpecificHumidity_IsbL-0005_RLatLon0.09_PT047H.grib2 2026-04-26 14:54 356K
20260426T12Z_MSC_RDPS_SpecificHumidity_IsbL-0010_RLatLon0.09_PT047H.grib2 2026-04-26 14:54 397K
20260426T12Z_MSC_RDPS_SpecificHumidity_IsbL-0020_RLatLon0.09_PT047H.grib2 2026-04-26 14:54 385K
20260426T12Z_MSC_RDPS_SpecificHumidity_IsbL-0030_RLatLon0.09_PT047H.grib2 2026-04-26 14:54 475K
20260426T12Z_MSC_RDPS_SpecificHumidity_IsbL-0050_RLatLon0.09_PT047H.grib2 2026-04-26 14:54 466K
20260426T12Z_MSC_RDPS_SpecificHumidity_IsbL-0100_RLatLon0.09_PT047H.grib2 2026-04-26 14:54 426K
20260426T12Z_MSC_RDPS_SpecificHumidity_IsbL-0150_RLatLon0.09_PT047H.grib2 2026-04-26 14:54 358K
20260426T12Z_MSC_RDPS_SpecificHumidity_IsbL-0175_RLatLon0.09_PT047H.grib2 2026-04-26 14:54 463K
20260426T12Z_MSC_RDPS_SpecificHumidity_IsbL-0200_RLatLon0.09_PT047H.grib2 2026-04-26 14:54 454K
20260426T12Z_MSC_RDPS_SpecificHumidity_IsbL-0225_RLatLon0.09_PT047H.grib2 2026-04-26 14:54 450K
20260426T12Z_MSC_RDPS_SpecificHumidity_IsbL-0250_RLatLon0.09_PT047H.grib2 2026-04-26 14:54 555K
20260426T12Z_MSC_RDPS_SpecificHumidity_IsbL-0275_RLatLon0.09_PT047H.grib2 2026-04-26 14:54 472K
20260426T12Z_MSC_RDPS_SpecificHumidity_IsbL-0300_RLatLon0.09_PT047H.grib2 2026-04-26 14:54 545K
20260426T12Z_MSC_RDPS_SpecificHumidity_IsbL-0350_RLatLon0.09_PT047H.grib2 2026-04-26 14:54 531K
20260426T12Z_MSC_RDPS_SpecificHumidity_IsbL-0400_RLatLon0.09_PT047H.grib2 2026-04-26 14:54 513K
20260426T12Z_MSC_RDPS_SpecificHumidity_IsbL-0450_RLatLon0.09_PT047H.grib2 2026-04-26 14:54 568K
20260426T12Z_MSC_RDPS_SpecificHumidity_IsbL-0500_RLatLon0.09_PT047H.grib2 2026-04-26 14:54 507K
20260426T12Z_MSC_RDPS_SpecificHumidity_IsbL-0550_RLatLon0.09_PT047H.grib2 2026-04-26 14:54 563K
20260426T12Z_MSC_RDPS_SpecificHumidity_IsbL-0600_RLatLon0.09_PT047H.grib2 2026-04-26 14:54 630K
20260426T12Z_MSC_RDPS_SpecificHumidity_IsbL-0650_RLatLon0.09_PT047H.grib2 2026-04-26 14:54 547K
20260426T12Z_MSC_RDPS_SpecificHumidity_IsbL-0700_RLatLon0.09_PT047H.grib2 2026-04-26 14:54 590K
20260426T12Z_MSC_RDPS_SpecificHumidity_IsbL-0750_RLatLon0.09_PT047H.grib2 2026-04-26 14:54 645K
20260426T12Z_MSC_RDPS_SpecificHumidity_IsbL-0800_RLatLon0.09_PT047H.grib2 2026-04-26 14:54 724K
20260426T12Z_MSC_RDPS_SpecificHumidity_IsbL-0850_RLatLon0.09_PT047H.grib2 2026-04-26 14:54 799K
20260426T12Z_MSC_RDPS_SpecificHumidity_IsbL-0875_RLatLon0.09_PT047H.grib2 2026-04-26 14:54 824K
20260426T12Z_MSC_RDPS_SpecificHumidity_IsbL-0900_RLatLon0.09_PT047H.grib2 2026-04-26 14:54 833K
20260426T12Z_MSC_RDPS_SpecificHumidity_IsbL-0925_RLatLon0.09_PT047H.grib2 2026-04-26 14:54 833K
20260426T12Z_MSC_RDPS_SpecificHumidity_IsbL-0950_RLatLon0.09_PT047H.grib2 2026-04-26 14:54 831K
20260426T12Z_MSC_RDPS_SpecificHumidity_IsbL-0970_RLatLon0.09_PT047H.grib2 2026-04-26 14:54 825K
20260426T12Z_MSC_RDPS_SpecificHumidity_IsbL-0985_RLatLon0.09_PT047H.grib2 2026-04-26 14:54 679K
20260426T12Z_MSC_RDPS_SpecificHumidity_IsbL-1000_RLatLon0.09_PT047H.grib2 2026-04-26 14:54 675K
20260426T12Z_MSC_RDPS_SpecificHumidity_IsbL-1015_RLatLon0.09_PT047H.grib2 2026-04-26 14:54 669K
20260426T12Z_MSC_RDPS_SpecificHumidity_Sfc_RLatLon0.09_PT047H.grib2 2026-04-26 14:54 289K
20260426T12Z_MSC_RDPS_StormRelativeHelicity_EtaL-10000_RLatLon0.09_PT047H.grib2 2026-04-26 14:54 1.1M
20260426T12Z_MSC_RDPS_StormSeverityIndex_EtaL-10000_RLatLon0.09_PT047H.grib2 2026-04-26 14:54 1.2M
20260426T12Z_MSC_RDPS_Thickness_IsbL-0850to0700_RLatLon0.09_PT047H.grib2 2026-04-26 14:54 176K
20260426T12Z_MSC_RDPS_Thickness_IsbL-1000to0500_RLatLon0.09_PT047H.grib2 2026-04-26 14:54 198K
20260426T12Z_MSC_RDPS_Thickness_IsbL-1000to0850_RLatLon0.09_PT047H.grib2 2026-04-26 14:54 261K
20260426T12Z_MSC_RDPS_TotalCloudCover_Sfc_RLatLon0.09_PT047H.grib2 2026-04-26 14:54 669K
20260426T12Z_MSC_RDPS_TotalTotalsIndex_Sfc_RLatLon0.09_PT047H.grib2 2026-04-26 14:54 2.4M
20260426T12Z_MSC_RDPS_UVIndex-ClearSky_Sfc_RLatLon0.09_PT047H.grib2 2026-04-26 14:54 114K
20260426T12Z_MSC_RDPS_UVIndex_Sfc_RLatLon0.09_PT047H.grib2 2026-04-26 14:54 263K
20260426T12Z_MSC_RDPS_UpwardLongwaveRadiationFlux_NTAtm_RLatLon0.09_PT047H.grib2 2026-04-26 14:54 491K
20260426T12Z_MSC_RDPS_UpwardShortwaveRadiationFlux_NTAtm_RLatLon0.09_PT047H.grib2 2026-04-26 14:54 247K
20260426T12Z_MSC_RDPS_VerticalVelocity_IsbL-0250_RLatLon0.09_PT047H.grib2 2026-04-26 14:54 558K
20260426T12Z_MSC_RDPS_VerticalVelocity_IsbL-0500_RLatLon0.09_PT047H.grib2 2026-04-26 14:54 548K
20260426T12Z_MSC_RDPS_VerticalVelocity_IsbL-0700_RLatLon0.09_PT047H.grib2 2026-04-26 14:54 594K
20260426T12Z_MSC_RDPS_VerticalVelocity_IsbL-0850_RLatLon0.09_PT047H.grib2 2026-04-26 14:54 693K
20260426T12Z_MSC_RDPS_VerticalWindShear_EtaL-6500_RLatLon0.09_PT047H.grib2 2026-04-26 14:54 1.2M
20260426T12Z_MSC_RDPS_WindChill_Sfc_RLatLon0.09_PT047H.grib2 2026-04-26 14:54 1.2M
20260426T12Z_MSC_RDPS_WindDir_AGL-10m_RLatLon0.09_PT047H.grib2 2026-04-26 14:54 1.0M
20260426T12Z_MSC_RDPS_WindDir_AGL-120m_RLatLon0.09_PT047H.grib2 2026-04-26 14:54 610K
20260426T12Z_MSC_RDPS_WindDir_AGL-40m_RLatLon0.09_PT047H.grib2 2026-04-26 14:54 647K
20260426T12Z_MSC_RDPS_WindDir_AGL-80m_RLatLon0.09_PT047H.grib2 2026-04-26 14:54 625K
20260426T12Z_MSC_RDPS_WindDir_IsbL-0001_RLatLon0.09_PT047H.grib2 2026-04-26 14:54 308K
20260426T12Z_MSC_RDPS_WindDir_IsbL-0005_RLatLon0.09_PT047H.grib2 2026-04-26 14:54 363K
20260426T12Z_MSC_RDPS_WindDir_IsbL-0010_RLatLon0.09_PT047H.grib2 2026-04-26 14:54 367K
20260426T12Z_MSC_RDPS_WindDir_IsbL-0020_RLatLon0.09_PT047H.grib2 2026-04-26 14:54 410K
20260426T12Z_MSC_RDPS_WindDir_IsbL-0030_RLatLon0.09_PT047H.grib2 2026-04-26 14:54 414K
20260426T12Z_MSC_RDPS_WindDir_IsbL-0050_RLatLon0.09_PT047H.grib2 2026-04-26 14:54 430K
20260426T12Z_MSC_RDPS_WindDir_IsbL-0100_RLatLon0.09_PT047H.grib2 2026-04-26 14:54 419K
20260426T12Z_MSC_RDPS_WindDir_IsbL-0150_RLatLon0.09_PT047H.grib2 2026-04-26 14:54 415K
20260426T12Z_MSC_RDPS_WindDir_IsbL-0175_RLatLon0.09_PT047H.grib2 2026-04-26 14:54 429K
20260426T12Z_MSC_RDPS_WindDir_IsbL-0200_RLatLon0.09_PT047H.grib2 2026-04-26 14:54 436K
20260426T12Z_MSC_RDPS_WindDir_IsbL-0225_RLatLon0.09_PT047H.grib2 2026-04-26 14:54 438K
20260426T12Z_MSC_RDPS_WindDir_IsbL-0250_RLatLon0.09_PT047H.grib2 2026-04-26 14:54 440K
20260426T12Z_MSC_RDPS_WindDir_IsbL-0275_RLatLon0.09_PT047H.grib2 2026-04-26 14:54 464K
20260426T12Z_MSC_RDPS_WindDir_IsbL-0300_RLatLon0.09_PT047H.grib2 2026-04-26 14:54 465K
20260426T12Z_MSC_RDPS_WindDir_IsbL-0350_RLatLon0.09_PT047H.grib2 2026-04-26 14:54 489K
20260426T12Z_MSC_RDPS_WindDir_IsbL-0400_RLatLon0.09_PT047H.grib2 2026-04-26 14:54 512K
20260426T12Z_MSC_RDPS_WindDir_IsbL-0450_RLatLon0.09_PT047H.grib2 2026-04-26 14:54 525K
20260426T12Z_MSC_RDPS_WindDir_IsbL-0500_RLatLon0.09_PT047H.grib2 2026-04-26 14:54 540K
20260426T12Z_MSC_RDPS_WindDir_IsbL-0550_RLatLon0.09_PT047H.grib2 2026-04-26 14:54 555K
20260426T12Z_MSC_RDPS_WindDir_IsbL-0600_RLatLon0.09_PT047H.grib2 2026-04-26 14:54 576K
20260426T12Z_MSC_RDPS_WindDir_IsbL-0650_RLatLon0.09_PT047H.grib2 2026-04-26 14:54 620K
20260426T12Z_MSC_RDPS_WindDir_IsbL-0700_RLatLon0.09_PT047H.grib2 2026-04-26 14:54 661K
20260426T12Z_MSC_RDPS_WindDir_IsbL-0750_RLatLon0.09_PT047H.grib2 2026-04-26 14:54 709K
20260426T12Z_MSC_RDPS_WindDir_IsbL-0800_RLatLon0.09_PT047H.grib2 2026-04-26 14:54 778K
20260426T12Z_MSC_RDPS_WindDir_IsbL-0850_RLatLon0.09_PT047H.grib2 2026-04-26 14:54 859K
20260426T12Z_MSC_RDPS_WindDir_IsbL-0875_RLatLon0.09_PT047H.grib2 2026-04-26 14:54 885K
20260426T12Z_MSC_RDPS_WindDir_IsbL-0900_RLatLon0.09_PT047H.grib2 2026-04-26 14:54 905K
20260426T12Z_MSC_RDPS_WindDir_IsbL-0925_RLatLon0.09_PT047H.grib2 2026-04-26 14:54 916K
20260426T12Z_MSC_RDPS_WindDir_IsbL-0950_RLatLon0.09_PT047H.grib2 2026-04-26 14:54 921K
20260426T12Z_MSC_RDPS_WindDir_IsbL-0970_RLatLon0.09_PT047H.grib2 2026-04-26 14:54 928K
20260426T12Z_MSC_RDPS_WindDir_IsbL-0985_RLatLon0.09_PT047H.grib2 2026-04-26 14:54 939K
20260426T12Z_MSC_RDPS_WindDir_IsbL-1000_RLatLon0.09_PT047H.grib2 2026-04-26 14:54 956K
20260426T12Z_MSC_RDPS_WindDir_IsbL-1015_RLatLon0.09_PT047H.grib2 2026-04-26 14:54 1.0M
20260426T12Z_MSC_RDPS_WindGust-Max_AGL-10m_RLatLon0.09_PT047H.grib2 2026-04-26 14:54 1.0M
20260426T12Z_MSC_RDPS_WindGust-Min_AGL-10m_RLatLon0.09_PT047H.grib2 2026-04-26 14:54 1.0M
20260426T12Z_MSC_RDPS_WindGust_AGL-10m_RLatLon0.09_PT047H.grib2 2026-04-26 14:54 1.0M
20260426T12Z_MSC_RDPS_WindSpeed_AGL-10m_RLatLon0.09_PT047H.grib2 2026-04-26 14:54 854K
20260426T12Z_MSC_RDPS_WindSpeed_AGL-120m_RLatLon0.09_PT047H.grib2 2026-04-26 14:54 548K
20260426T12Z_MSC_RDPS_WindSpeed_AGL-40m_RLatLon0.09_PT047H.grib2 2026-04-26 14:54 553K
20260426T12Z_MSC_RDPS_WindSpeed_AGL-80m_RLatLon0.09_PT047H.grib2 2026-04-26 14:54 550K
20260426T12Z_MSC_RDPS_WindSpeed_IsbL-0001_RLatLon0.09_PT047H.grib2 2026-04-26 14:54 255K
20260426T12Z_MSC_RDPS_WindSpeed_IsbL-0005_RLatLon0.09_PT047H.grib2 2026-04-26 14:54 300K
20260426T12Z_MSC_RDPS_WindSpeed_IsbL-0010_RLatLon0.09_PT047H.grib2 2026-04-26 14:54 406K
20260426T12Z_MSC_RDPS_WindSpeed_IsbL-0020_RLatLon0.09_PT047H.grib2 2026-04-26 14:54 331K
20260426T12Z_MSC_RDPS_WindSpeed_IsbL-0030_RLatLon0.09_PT047H.grib2 2026-04-26 14:54 325K
20260426T12Z_MSC_RDPS_WindSpeed_IsbL-0050_RLatLon0.09_PT047H.grib2 2026-04-26 14:54 359K
20260426T12Z_MSC_RDPS_WindSpeed_IsbL-0100_RLatLon0.09_PT047H.grib2 2026-04-26 14:54 486K
20260426T12Z_MSC_RDPS_WindSpeed_IsbL-0150_RLatLon0.09_PT047H.grib2 2026-04-26 14:54 389K
20260426T12Z_MSC_RDPS_WindSpeed_IsbL-0175_RLatLon0.09_PT047H.grib2 2026-04-26 14:54 437K
20260426T12Z_MSC_RDPS_WindSpeed_IsbL-0200_RLatLon0.09_PT047H.grib2 2026-04-26 14:54 449K
20260426T12Z_MSC_RDPS_WindSpeed_IsbL-0225_RLatLon0.09_PT047H.grib2 2026-04-26 14:54 453K
20260426T12Z_MSC_RDPS_WindSpeed_IsbL-0250_RLatLon0.09_PT047H.grib2 2026-04-26 14:54 457K
20260426T12Z_MSC_RDPS_WindSpeed_IsbL-0275_RLatLon0.09_PT047H.grib2 2026-04-26 14:54 475K
20260426T12Z_MSC_RDPS_WindSpeed_IsbL-0300_RLatLon0.09_PT047H.grib2 2026-04-26 14:54 472K
20260426T12Z_MSC_RDPS_WindSpeed_IsbL-0350_RLatLon0.09_PT047H.grib2 2026-04-26 14:54 484K
20260426T12Z_MSC_RDPS_WindSpeed_IsbL-0400_RLatLon0.09_PT047H.grib2 2026-04-26 14:54 470K
20260426T12Z_MSC_RDPS_WindSpeed_IsbL-0450_RLatLon0.09_PT047H.grib2 2026-04-26 14:54 466K
20260426T12Z_MSC_RDPS_WindSpeed_IsbL-0500_RLatLon0.09_PT047H.grib2 2026-04-26 14:54 581K
20260426T12Z_MSC_RDPS_WindSpeed_IsbL-0550_RLatLon0.09_PT047H.grib2 2026-04-26 14:54 581K
20260426T12Z_MSC_RDPS_WindSpeed_IsbL-0600_RLatLon0.09_PT047H.grib2 2026-04-26 14:54 590K
20260426T12Z_MSC_RDPS_WindSpeed_IsbL-0650_RLatLon0.09_PT047H.grib2 2026-04-26 14:54 653K
20260426T12Z_MSC_RDPS_WindSpeed_IsbL-0700_RLatLon0.09_PT047H.grib2 2026-04-26 14:54 676K
20260426T12Z_MSC_RDPS_WindSpeed_IsbL-0750_RLatLon0.09_PT047H.grib2 2026-04-26 14:54 705K
20260426T12Z_MSC_RDPS_WindSpeed_IsbL-0800_RLatLon0.09_PT047H.grib2 2026-04-26 14:54 753K
20260426T12Z_MSC_RDPS_WindSpeed_IsbL-0850_RLatLon0.09_PT047H.grib2 2026-04-26 14:54 813K
20260426T12Z_MSC_RDPS_WindSpeed_IsbL-0875_RLatLon0.09_PT047H.grib2 2026-04-26 14:54 837K
20260426T12Z_MSC_RDPS_WindSpeed_IsbL-0900_RLatLon0.09_PT047H.grib2 2026-04-26 14:54 853K
20260426T12Z_MSC_RDPS_WindSpeed_IsbL-0925_RLatLon0.09_PT047H.grib2 2026-04-26 14:54 865K
20260426T12Z_MSC_RDPS_WindSpeed_IsbL-0950_RLatLon0.09_PT047H.grib2 2026-04-26 14:54 868K
20260426T12Z_MSC_RDPS_WindSpeed_IsbL-0970_RLatLon0.09_PT047H.grib2 2026-04-26 14:54 869K
20260426T12Z_MSC_RDPS_WindSpeed_IsbL-0985_RLatLon0.09_PT047H.grib2 2026-04-26 14:54 863K
20260426T12Z_MSC_RDPS_WindSpeed_IsbL-1000_RLatLon0.09_PT047H.grib2 2026-04-26 14:54 861K
20260426T12Z_MSC_RDPS_WindSpeed_IsbL-1015_RLatLon0.09_PT047H.grib2 2026-04-26 14:54 853K
20260426T12Z_MSC_RDPS_WindU_AGL-10m_RLatLon0.09_PT047H.grib2 2026-04-26 14:54 439K
20260426T12Z_MSC_RDPS_WindU_AGL-120m_RLatLon0.09_PT047H.grib2 2026-04-26 14:54 426K
20260426T12Z_MSC_RDPS_WindU_AGL-40m_RLatLon0.09_PT047H.grib2 2026-04-26 14:54 549K
20260426T12Z_MSC_RDPS_WindU_AGL-80m_RLatLon0.09_PT047H.grib2 2026-04-26 14:54 428K
20260426T12Z_MSC_RDPS_WindU_IsbL-0001_RLatLon0.09_PT047H.grib2 2026-04-26 14:54 296K
20260426T12Z_MSC_RDPS_WindU_IsbL-0005_RLatLon0.09_PT047H.grib2 2026-04-26 14:54 334K
20260426T12Z_MSC_RDPS_WindU_IsbL-0010_RLatLon0.09_PT047H.grib2 2026-04-26 14:54 303K
20260426T12Z_MSC_RDPS_WindU_IsbL-0020_RLatLon0.09_PT047H.grib2 2026-04-26 14:54 360K
20260426T12Z_MSC_RDPS_WindU_IsbL-0030_RLatLon0.09_PT047H.grib2 2026-04-26 14:54 356K
20260426T12Z_MSC_RDPS_WindU_IsbL-0050_RLatLon0.09_PT047H.grib2 2026-04-26 14:54 385K
20260426T12Z_MSC_RDPS_WindU_IsbL-0100_RLatLon0.09_PT047H.grib2 2026-04-26 14:54 343K
20260426T12Z_MSC_RDPS_WindU_IsbL-0150_RLatLon0.09_PT047H.grib2 2026-04-26 14:54 405K
20260426T12Z_MSC_RDPS_WindU_IsbL-0175_RLatLon0.09_PT047H.grib2 2026-04-26 14:54 430K
20260426T12Z_MSC_RDPS_WindU_IsbL-0200_RLatLon0.09_PT047H.grib2 2026-04-26 14:54 342K
20260426T12Z_MSC_RDPS_WindU_IsbL-0225_RLatLon0.09_PT047H.grib2 2026-04-26 14:54 346K
20260426T12Z_MSC_RDPS_WindU_IsbL-0250_RLatLon0.09_PT047H.grib2 2026-04-26 14:54 447K
20260426T12Z_MSC_RDPS_WindU_IsbL-0275_RLatLon0.09_PT047H.grib2 2026-04-26 14:54 464K
20260426T12Z_MSC_RDPS_WindU_IsbL-0300_RLatLon0.09_PT047H.grib2 2026-04-26 14:54 459K
20260426T12Z_MSC_RDPS_WindU_IsbL-0350_RLatLon0.09_PT047H.grib2 2026-04-26 14:54 470K
20260426T12Z_MSC_RDPS_WindU_IsbL-0400_RLatLon0.09_PT047H.grib2 2026-04-26 14:54 472K
20260426T12Z_MSC_RDPS_WindU_IsbL-0450_RLatLon0.09_PT047H.grib2 2026-04-26 14:54 471K
20260426T12Z_MSC_RDPS_WindU_IsbL-0500_RLatLon0.09_PT047H.grib2 2026-04-26 14:54 469K
20260426T12Z_MSC_RDPS_WindU_IsbL-0550_RLatLon0.09_PT047H.grib2 2026-04-26 14:54 470K
20260426T12Z_MSC_RDPS_WindU_IsbL-0600_RLatLon0.09_PT047H.grib2 2026-04-26 14:54 461K
20260426T12Z_MSC_RDPS_WindU_IsbL-0650_RLatLon0.09_PT047H.grib2 2026-04-26 14:54 479K
20260426T12Z_MSC_RDPS_WindU_IsbL-0700_RLatLon0.09_PT047H.grib2 2026-04-26 14:54 500K
20260426T12Z_MSC_RDPS_WindU_IsbL-0750_RLatLon0.09_PT047H.grib2 2026-04-26 14:54 526K
20260426T12Z_MSC_RDPS_WindU_IsbL-0800_RLatLon0.09_PT047H.grib2 2026-04-26 14:54 569K
20260426T12Z_MSC_RDPS_WindU_IsbL-0850_RLatLon0.09_PT047H.grib2 2026-04-26 14:54 623K
20260426T12Z_MSC_RDPS_WindU_IsbL-0875_RLatLon0.09_PT047H.grib2 2026-04-26 14:54 643K
20260426T12Z_MSC_RDPS_WindU_IsbL-0900_RLatLon0.09_PT047H.grib2 2026-04-26 14:54 655K
20260426T12Z_MSC_RDPS_WindU_IsbL-0925_RLatLon0.09_PT047H.grib2 2026-04-26 14:54 662K
20260426T12Z_MSC_RDPS_WindU_IsbL-0950_RLatLon0.09_PT047H.grib2 2026-04-26 14:54 661K
20260426T12Z_MSC_RDPS_WindU_IsbL-0970_RLatLon0.09_PT047H.grib2 2026-04-26 14:54 661K
20260426T12Z_MSC_RDPS_WindU_IsbL-0985_RLatLon0.09_PT047H.grib2 2026-04-26 14:54 659K
20260426T12Z_MSC_RDPS_WindU_IsbL-1000_RLatLon0.09_PT047H.grib2 2026-04-26 14:54 797K
20260426T12Z_MSC_RDPS_WindU_IsbL-1015_RLatLon0.09_PT047H.grib2 2026-04-26 14:54 792K
20260426T12Z_MSC_RDPS_WindV_AGL-10m_RLatLon0.09_PT047H.grib2 2026-04-26 14:54 437K
20260426T12Z_MSC_RDPS_WindV_AGL-120m_RLatLon0.09_PT047H.grib2 2026-04-26 14:54 541K
20260426T12Z_MSC_RDPS_WindV_AGL-40m_RLatLon0.09_PT047H.grib2 2026-04-26 14:54 546K
20260426T12Z_MSC_RDPS_WindV_AGL-80m_RLatLon0.09_PT047H.grib2 2026-04-26 14:54 543K
20260426T12Z_MSC_RDPS_WindV_IsbL-0001_RLatLon0.09_PT047H.grib2 2026-04-26 14:54 295K
20260426T12Z_MSC_RDPS_WindV_IsbL-0005_RLatLon0.09_PT047H.grib2 2026-04-26 14:54 334K
20260426T12Z_MSC_RDPS_WindV_IsbL-0010_RLatLon0.09_PT047H.grib2 2026-04-26 14:54 303K
20260426T12Z_MSC_RDPS_WindV_IsbL-0020_RLatLon0.09_PT047H.grib2 2026-04-26 14:54 323K
20260426T12Z_MSC_RDPS_WindV_IsbL-0030_RLatLon0.09_PT047H.grib2 2026-04-26 14:54 320K
20260426T12Z_MSC_RDPS_WindV_IsbL-0050_RLatLon0.09_PT047H.grib2 2026-04-26 14:54 352K
20260426T12Z_MSC_RDPS_WindV_IsbL-0100_RLatLon0.09_PT047H.grib2 2026-04-26 14:54 340K
20260426T12Z_MSC_RDPS_WindV_IsbL-0150_RLatLon0.09_PT047H.grib2 2026-04-26 14:54 403K
20260426T12Z_MSC_RDPS_WindV_IsbL-0175_RLatLon0.09_PT047H.grib2 2026-04-26 14:54 429K
20260426T12Z_MSC_RDPS_WindV_IsbL-0200_RLatLon0.09_PT047H.grib2 2026-04-26 14:54 343K
20260426T12Z_MSC_RDPS_WindV_IsbL-0225_RLatLon0.09_PT047H.grib2 2026-04-26 14:54 344K
20260426T12Z_MSC_RDPS_WindV_IsbL-0250_RLatLon0.09_PT047H.grib2 2026-04-26 14:54 345K
20260426T12Z_MSC_RDPS_WindV_IsbL-0275_RLatLon0.09_PT047H.grib2 2026-04-26 14:54 384K
20260426T12Z_MSC_RDPS_WindV_IsbL-0300_RLatLon0.09_PT047H.grib2 2026-04-26 14:54 357K
20260426T12Z_MSC_RDPS_WindV_IsbL-0350_RLatLon0.09_PT047H.grib2 2026-04-26 14:54 365K
20260426T12Z_MSC_RDPS_WindV_IsbL-0400_RLatLon0.09_PT047H.grib2 2026-04-26 14:54 366K
20260426T12Z_MSC_RDPS_WindV_IsbL-0450_RLatLon0.09_PT047H.grib2 2026-04-26 14:54 468K
20260426T12Z_MSC_RDPS_WindV_IsbL-0500_RLatLon0.09_PT047H.grib2 2026-04-26 14:54 466K
20260426T12Z_MSC_RDPS_WindV_IsbL-0550_RLatLon0.09_PT047H.grib2 2026-04-26 14:54 466K
20260426T12Z_MSC_RDPS_WindV_IsbL-0600_RLatLon0.09_PT047H.grib2 2026-04-26 14:54 474K
20260426T12Z_MSC_RDPS_WindV_IsbL-0650_RLatLon0.09_PT047H.grib2 2026-04-26 14:54 492K
20260426T12Z_MSC_RDPS_WindV_IsbL-0700_RLatLon0.09_PT047H.grib2 2026-04-26 14:54 496K
20260426T12Z_MSC_RDPS_WindV_IsbL-0750_RLatLon0.09_PT047H.grib2 2026-04-26 14:54 521K
20260426T12Z_MSC_RDPS_WindV_IsbL-0800_RLatLon0.09_PT047H.grib2 2026-04-26 14:54 564K
20260426T12Z_MSC_RDPS_WindV_IsbL-0850_RLatLon0.09_PT047H.grib2 2026-04-26 14:54 618K
20260426T12Z_MSC_RDPS_WindV_IsbL-0875_RLatLon0.09_PT047H.grib2 2026-04-26 14:54 639K
20260426T12Z_MSC_RDPS_WindV_IsbL-0900_RLatLon0.09_PT047H.grib2 2026-04-26 14:54 653K
20260426T12Z_MSC_RDPS_WindV_IsbL-0925_RLatLon0.09_PT047H.grib2 2026-04-26 14:54 660K
20260426T12Z_MSC_RDPS_WindV_IsbL-0950_RLatLon0.09_PT047H.grib2 2026-04-26 14:54 661K
20260426T12Z_MSC_RDPS_WindV_IsbL-0970_RLatLon0.09_PT047H.grib2 2026-04-26 14:54 801K
20260426T12Z_MSC_RDPS_WindV_IsbL-0985_RLatLon0.09_PT047H.grib2 2026-04-26 14:54 798K
20260426T12Z_MSC_RDPS_WindV_IsbL-1000_RLatLon0.09_PT047H.grib2 2026-04-26 14:54 795K
20260426T12Z_MSC_RDPS_WindV_IsbL-1015_RLatLon0.09_PT047H.grib2 2026-04-26 14:54 835K